CW4647 Weather Reports


time (UTC)temp
C
wind
direction
speed
KPH
gust
KPH
rain 1hr
cm
rain 24hr
cm
rain mn
cm
humidity
%
barometer
mb
20260504214057 28 76 9.7 29.0 0.00 0.00 0.00 73 1012.0
20260504213555 28 101 16.1 29.0 0.00 0.00 0.00 74 1011.9
20260504213058 28 69 16.1 25.7 0.00 0.00 0.00 74 1011.9
20260504212557 28 122 12.9 24.1 0.00 0.00 0.00 75 1011.8
20260504212055 28 89 12.9 24.1 0.00 0.00 0.00 76 1011.9
20260504211558 28 57 12.9 25.7 0.00 0.00 0.00 76 1011.9
20260504211058 28 92 16.1 29.0 0.00 0.00 0.00 76 1011.9
20260504210555 27 76 11.3 29.0 0.00 0.00 0.00 77 1011.9
20260504210110 27 106 8.0 24.1 0.00 0.00 0.00 77 1011.8
20260504205557 27 68 16.1 24.1 0.00 0.00 0.00 77 1011.7
20260504205058 27 103 14.5 24.1 0.00 0.00 0.00 77 1011.6
20260504204602 27 79 14.5 24.1 0.00 0.00 0.00 78 1011.6
20260504204055 27 76 11.3 25.7 0.00 0.00 0.00 78 1011.5
20260504203557 27 78 12.9 27.4 0.00 0.00 0.00 78 1011.4
20260504203054 27 78 12.9 27.4 0.00 0.00 0.00 78 1011.4
20260504202557 27 78 9.7 25.7 0.00 0.00 0.00 78 1011.2
20260504202059 27 75 14.5 35.4 0.00 0.00 0.00 79 1011.2
20260504201607 27 59 12.9 35.4 0.00 0.00 0.00 79 1011.2
20260504201057 27 94 11.3 25.7 0.00 0.00 0.00 79 1011.1
20260504200555 27 80 12.9 27.4 0.00 0.00 0.00 79 1011.0
20260504200100 27 82 12.9 27.4 0.00 0.00 0.00 79 1011.0
20260504195555 27 65 14.5 25.7 0.00 0.00 0.00 80 1011.0
20260504195058 27 89 12.9 25.7 0.00 0.00 0.00 80 1011.0
20260504194608 27 90 14.5 25.7 0.00 0.00 0.00 80 1011.0
20260504194055 27 83 11.3 22.5 0.00 0.00 0.00 80 1010.9
20260504193555 27 82 12.9 22.5 0.00 0.00 0.00 80 1010.8
20260504193056 27 74 11.3 22.5 0.00 0.00 0.00 81 1010.8
20260504192555 27 48 8.0 16.1 0.00 0.00 0.00 82 1010.8
20260504192057 27 92 8.0 16.1 0.00 0.00 0.00 82 1010.8
20260504191558 27 56 8.0 17.7 0.00 0.00 0.00 82 1010.7
20260504191057 27 76 8.0 17.7 0.00 0.00 0.00 82 1010.8
20260504190600 27 88 4.8 17.7 0.00 0.00 0.00 82 1010.8
20260504190125 27 78 6.4 16.1 0.00 0.00 0.00 82 1010.7
20260504185556 27 88 9.7 19.3 0.00 0.00 0.00 82 1010.4
20260504185100 27 102 6.4 19.3 0.00 0.00 0.00 82 1010.5
20260504184559 27 74 11.3 19.3 0.00 0.00 0.00 82 1010.4
20260504184102 27 84 6.4 24.1 0.00 0.00 0.00 82 1010.4
20260504183600 27 58 9.7 24.1 0.00 0.00 0.00 82 1010.3
20260504183058 27 76 14.5 24.1 0.00 0.00 0.00 82 1010.4
20260504182601 27 94 14.5 22.5 0.00 0.00 0.00 82 1010.4
20260504182059 27 94 6.4 17.7 0.00 0.00 0.00 82 1010.5
20260504181604 26 95 8.0 19.3 0.00 0.00 0.00 82 1010.4
20260504181059 26 94 9.7 19.3 0.00 0.00 0.00 82 1010.3
20260504180600 27 82 11.3 19.3 0.00 0.00 0.00 82 1010.3
20260504180155 27 80 6.4 19.3 0.00 0.00 0.00 82 1010.4
20260504175559 27 81 9.7 20.9 0.00 0.00 0.00 81 1010.4
20260504175101 27 103 11.3 20.9 0.00 0.00 0.00 81 1010.3
20260504174602 27 126 11.3 27.4 0.00 0.00 0.00 80 1010.4
20260504174100 27 92 12.9 27.4 0.00 0.00 0.00 79 1010.5
20260504173559 27 86 11.3 20.9 0.00 0.00 0.00 79 1010.6
20260504173125 27 88 8.0 20.9 0.00 0.00 0.00 79 1010.6
20260504172559 27 86 14.5 20.9 0.00 0.00 0.00 79 1010.5
20260504172059 27 99 8.0 17.7 0.00 0.00 0.00 79 1010.6
20260504171602 27 77 9.7 17.7 0.00 0.00 0.00 79 1010.7
20260504171100 27 90 11.3 19.3 0.00 0.00 0.00 78 1010.7
20260504170559 27 80 11.3 24.1 0.00 0.00 0.00 78 1010.8
20260504151058 27 78 14.5 22.5 0.00 0.08 0.00 78 1011.5
20260504150556 27 103 8.0 20.9 0.00 0.08 0.00 79 1011.5
20260504141058 27 82 12.9 30.6 0.00 0.08 0.00 80 1012.1
20260504140557 27 66 9.7 22.5 0.00 0.08 0.00 80 1012.2
20260504140119 27 59 12.9 29.0 0.00 0.08 0.00 80 1012.2
20260504130557 27 80 19.3 33.8 0.00 0.08 0.08 79 1012.8
20260504120113 28 103 11.3 33.8 0.00 0.08 0.08 77 1012.4
20260504110557 28 111 12.9 22.5 0.00 0.08 0.08 79 1012.0
20260504100555 28 63 16.1 32.2 0.00 0.08 0.08 77 1011.6
20260504081558 28 69 16.1 30.6 0.00 0.08 0.08 77 1010.8
20260504081057 28 86 11.3 30.6 0.00 0.08 0.08 77 1010.6
20260504080557 28 85 17.7 30.6 0.00 0.08 0.08 77 1010.6
20260504050558 29 102 20.9 43.5 0.00 0.08 0.08 72 1010.2
20260504050131 30 89 29.0 43.5 0.00 0.08 0.08 71 1010.1
20260504045557 30 81 20.9 41.8 0.00 0.08 0.08 72 1010.1
20260504045058 30 119 19.3 41.8 0.00 0.08 0.08 72 1010.1
20260504044559 30 77 20.9 33.8 0.00 0.08 0.08 73 1010.2
20260504044059 29 126 16.1 35.4 0.00 0.08 0.08 75 1010.2
20260504043556 29 112 22.5 37.0 0.00 0.08 0.08 75 1010.3
20260504043101 29 105 24.1 40.2 0.00 0.08 0.08 75 1010.3
20260504042558 30 59 25.7 40.2 0.00 0.08 0.08 72 1010.3
20260504042057 30 93 20.9 40.2 0.00 0.08 0.08 71 1010.3
20260504041557 30 102 22.5 40.2 0.00 0.08 0.08 71 1010.3
20260504041058 30 82 22.5 40.2 0.00 0.08 0.08 71 1010.3
20260504040558 30 100 17.7 32.2 0.00 0.08 0.08 70 1010.4
20260504040105 30 82 17.7 37.0 0.00 0.08 0.08 72 1010.4
20260504035558 30 81 25.7 37.0 0.00 0.08 0.08 72 1010.5
20260504035101 30 73 19.3 35.4 0.00 0.08 0.08 72 1010.5
20260504034600 30 88 24.1 37.0 0.00 0.08 0.08 71 1010.6
20260504034056 30 56 17.7 37.0 0.00 0.08 0.08 72 1010.6
20260504033556 30 61 17.7 37.0 0.00 0.08 0.08 72 1010.7
20260504033058 30 105 22.5 35.4 0.00 0.08 0.08 73 1010.8
20260504032559 30 93 20.9 40.2 0.00 0.08 0.08 72 1010.9
20260504032103 30 90 20.9 40.2 0.00 0.08 0.08 72 1010.9
20260504031623 30 94 24.1 43.5 0.00 0.08 0.08 72 1011.0
20260504031100 30 81 17.7 43.5 0.00 0.08 0.08 73 1011.0
20260504030559 29 88 25.7 43.5 0.00 0.08 0.08 73 1011.0
20260504030056 30 76 20.9 38.6 0.00 0.08 0.08 73 1011.0
20260504025559 -46 66 20.9 38.6 0.00 0.08 0.08 1011.2
20260504025057 30 76 22.5 33.8 0.00 0.08 0.08 73 1011.3
20260504024601 30 51 20.9 35.4 0.00 0.08 0.08 72 1011.3
20260504024055 30 107 14.5 37.0 0.00 0.08 0.08 72 1011.4
20260504023558 30 81 20.9 37.0 0.00 0.08 0.08 72 1011.6
20260504023059 30 86 17.7 45.1 0.00 0.08 0.08 73 1011.6
20260504022559 30 87 22.5 45.1 0.00 0.08 0.08 72 1011.6
20260504022101 30 78 22.5 41.8 0.00 0.08 0.08 71 1011.6
20260504021609 30 96 17.7 38.6 0.00 0.08 0.08 71 1011.6
20260504021101 30 97 19.3 38.6 0.00 0.08 0.08 72 1011.7
20260504020601 30 108 25.7 38.6 0.00 0.08 0.08 73 1011.6
20260504020105 30 67 20.9 41.8 0.00 0.08 0.08 72 1011.7
20260504015556 30 73 20.9 41.8 0.00 0.08 0.08 73 1011.7
20260504015056 30 117 20.9 37.0 0.00 0.08 0.08 72 1011.9
20260504014600 30 110 17.7 38.6 0.00 0.08 0.08 73 1011.8
20260504014055 30 76 19.3 45.1 0.00 0.08 0.08 73 1011.8
20260504013557 30 75 20.9 45.1 0.00 0.08 0.08 73 1011.9
20260504013105 29 55 22.5 45.1 0.00 0.08 0.08 72 1011.9
20260504012559 30 83 19.3 41.8 0.00 0.08 0.08 73 1012.0
20260504012056 30 94 24.1 41.8 0.00 0.08 0.08 72 1012.1
20260504011558 30 77 16.1 45.1 0.00 0.08 0.08 71 1012.1
20260504011055 30 104 25.7 45.1 0.00 0.08 0.08 70 1012.1
20260504010556 30 113 17.7 33.8 0.00 0.08 0.08 71 1012.1
20260504010110 30 90 22.5 40.2 0.00 0.08 0.08 71 1012.2
20260504005555 30 108 20.9 40.2 0.00 0.08 0.08 72 1012.2
20260504005057 30 63 22.5 43.5 0.00 0.08 0.08 72 1012.2
20260504004558 29 92 27.4 43.5 0.00 0.08 0.08 74 1012.3
20260504004057 29 59 20.9 38.6 0.00 0.08 0.08 74 1012.3
20260504003558 30 92 22.5 33.8 0.00 0.08 0.08 74 1012.3
20260504003058 30 75 14.5 29.0 0.00 0.08 0.08 73 1012.4
20260504002557 30 102 11.3 29.0 0.00 0.08 0.08 74 1012.4
20260504002101 30 97 16.1 29.0 0.00 0.08 0.08 73 1012.4
20260504001611 29 123 17.7 38.6 0.00 0.08 0.08 74 1012.4
20260504001056 29 84 22.5 38.6 0.00 0.08 0.08 74 1012.3
20260504000557 29 109 24.1 38.6 0.00 0.08 0.08 74 1012.4
20260504000058 29 102 17.7 33.8 0.00 0.08 0.08 74 1012.3
20260503235557 29 89 19.3 32.2 0.00 0.08 0.08 74 1012.4
20260503235056 29 114 19.3 32.2 0.00 0.08 0.08 75 1012.3
20260503234557 29 82 14.5 33.8 0.00 0.08 0.08 76 1012.3
20260503234057 29 98 17.7 33.8 0.00 0.08 0.08 75 1012.2
20260503233558 29 78 17.7 33.8 0.00 0.08 0.08 74 1012.2
20260503233056 29 94 17.7 32.2 0.00 0.08 0.08 74 1012.2
20260503232557 29 67 19.3 32.2 0.00 0.08 0.08 74 1012.3
20260503232057 29 84 16.1 33.8 0.00 0.08 0.08 74 1012.3
20260503231557 29 87 19.3 33.8 0.00 0.08 0.08 74 1012.3
20260503231059 29 81 17.7 30.6 0.00 0.08 0.08 73 1012.2
20260503230559 29 83 19.3 38.6 0.00 0.08 0.08 74 1012.2
20260503225559 29 92 11.3 30.6 0.00 0.08 0.08 75 1012.3
20260503225102 29 90 14.5 37.0 0.00 0.08 0.08 75 1012.3
20260503224608 29 118 16.1 37.0 0.00 0.08 0.08 75 1012.3
20260503224100 29 98 16.1 33.8 0.00 0.08 0.08 75 1012.2
20260503223558 29 118 19.3 33.8 0.00 0.08 0.08 75 1012.2
20260503223109 29 93 19.3 33.8 0.00 0.08 0.08 75 1012.1
20260503222601 29 81 17.7 35.4 0.00 0.08 0.08 76 1012.1
20260503222057 29 94 19.3 35.4 0.00 0.08 0.08 75 1012.0
20260503221559 29 49 22.5 35.4 0.00 0.08 0.08 75 1011.9
20260503221103 29 95 19.3 35.4 0.00 0.08 0.08 76 1012.0
20260503220559 28 90 24.1 35.4 0.00 0.08 0.08 76 1011.9
20260503220109 28 82 17.7 32.2 0.00 0.08 0.08 76 1012.0
20260503215559 28 95 16.1 29.0 0.00 0.08 0.08 77 1011.9
20260503215100 28 107 17.7 30.6 0.00 0.08 0.08 77 1011.9
20260503214559 28 65 17.7 32.2 0.00 0.08 0.08 77 1011.8